DLH6767 EDDM-EPKK

Flight info

Callsign DLH6767
Flight time N/A
Altitude 33000
Route BIBAG4N BIBAG Y133 BEPAS DCT NELPA DCT PADKA PADKA4G
Aircraft A319/M-SDE3FGHIRWY/LB1

Departure

Time 2026-05-05 10:39
Airport Munich Airport (EDDM)

Arrival

Time N/A
Airport Kraków John Paul II International Airport (EPKK)
Time Latitude Longitude Altitude Speed Heading
2026-05-05 10:14 48.35257 11.80659 1486 ft 0 kts 353°
2026-05-05 10:26 48.35234 11.80664 1472 ft 4 kts 343°
2026-05-05 10:26 48.35212 11.80682 1475 ft 4 kts 297°
2026-05-05 10:27 48.35208 11.80699 1476 ft 0 kts 263°
2026-05-05 10:30 48.35206 11.80676 1473 ft 6 kts 263°
2026-05-05 10:30 48.35200 11.80589 1485 ft 11 kts 263°
2026-05-05 10:30 48.35189 11.80449 1485 ft 15 kts 263°
2026-05-05 10:30 48.35176 11.80289 1485 ft 16 kts 264°
2026-05-05 10:31 48.35248 11.80211 1482 ft 14 kts 355°
2026-05-05 10:31 48.35352 11.80194 1483 ft 17 kts 351°
2026-05-05 10:31 48.35475 11.80158 1485 ft 18 kts 353°
2026-05-05 10:31 48.35601 11.80137 1485 ft 18 kts 353°
2026-05-05 10:32 48.35718 11.80078 1485 ft 18 kts 349°
2026-05-05 10:32 48.35821 11.80019 1485 ft 15 kts 292°
2026-05-05 10:32 48.35820 11.79863 1485 ft 15 kts 263°
2026-05-05 10:32 48.35807 11.79706 1485 ft 15 kts 264°
2026-05-05 10:33 48.35806 11.79555 1475 ft 13 kts 304°
2026-05-05 10:33 48.35885 11.79515 1485 ft 12 kts 353°
2026-05-05 10:33 48.35978 11.79498 1485 ft 14 kts 354°
2026-05-05 10:33 48.36075 11.79483 1482 ft 14 kts 353°
2026-05-05 10:34 48.36175 11.79473 1485 ft 14 kts
2026-05-05 10:34 48.36223 11.79584 1474 ft 14 kts 84°
2026-05-05 10:34 48.36233 11.79730 1485 ft 14 kts 84°
2026-05-05 10:34 48.36245 11.79881 1485 ft 16 kts 83°
2026-05-05 10:35 48.36260 11.80063 1485 ft 19 kts 83°
2026-05-05 10:35 48.36274 11.80258 1485 ft 20 kts 84°
2026-05-05 10:35 48.36290 11.80467 1479 ft 20 kts 83°
2026-05-05 10:35 48.36306 11.80673 1482 ft 20 kts 84°
2026-05-05 10:36 48.36322 11.80882 1485 ft 20 kts 83°
2026-05-05 10:36 48.36339 11.81091 1476 ft 20 kts 83°
2026-05-05 10:36 48.36355 11.81304 1477 ft 22 kts 82°
2026-05-05 10:36 48.36373 11.81543 1485 ft 24 kts 83°
2026-05-05 10:37 48.36392 11.81791 1485 ft 24 kts 83°
2026-05-05 10:37 48.36392 11.82012 1485 ft 19 kts 87°
2026-05-05 10:37 48.36442 11.82139 1481 ft 13 kts 10°
2026-05-05 10:37 48.36533 11.82123 1479 ft 13 kts 353°
2026-05-05 10:38 48.36619 11.82083 1484 ft 13 kts 323°
2026-05-05 10:38 48.36669 11.81967 1474 ft 14 kts 285°
2026-05-05 10:38 48.36667 11.81823 1475 ft 14 kts 264°
2026-05-05 10:38 48.36649 11.81588 1485 ft 44 kts 263°
2026-05-05 10:39 48.36585 11.80756 1486 ft 113 kts 264°
2026-05-05 10:39 48.36475 11.79310 1486 ft 164 kts 263°
2026-05-05 10:39 48.36342 11.77440 1770 ft 183 kts 264°
2026-05-05 10:39 48.36208 11.75522 2385 ft 187 kts 264°
2026-05-05 10:40 48.36062 11.73550 3003 ft 193 kts 263°
2026-05-05 10:40 48.35695 11.71551 3381 ft 211 kts 244°
2026-05-05 10:40 48.34763 11.69685 3682 ft 238 kts 222°
2026-05-05 10:40 48.33230 11.68400 3991 ft 269 kts 193°
2026-05-05 10:41 48.31357 11.68520 4907 ft 272 kts 161°
2026-05-05 10:41 48.29835 11.70108 5914 ft 274 kts 129°
2026-05-05 10:41 48.29061 11.72737 6825 ft 283 kts 101°
2026-05-05 10:41 48.28968 11.75722 7694 ft 289 kts 90°
2026-05-05 10:42 48.29208 11.81740 9699 ft 291 kts 87°
2026-05-05 10:42 48.29329 11.84810 10581 ft 296 kts 90°
2026-05-05 10:42 48.29267 11.87912 11465 ft 299 kts 96°
2026-05-05 10:43 48.29050 11.91061 12191 ft 309 kts 96°
2026-05-05 10:43 48.29337 11.94346 12442 ft 337 kts 71°
2026-05-05 10:43 48.30499 11.97530 12872 ft 354 kts 59°
2026-05-05 10:43 48.31810 12.00742 13558 ft 361 kts 59°
2026-05-05 10:44 48.33105 12.03954 14238 ft 366 kts 60°
2026-05-05 10:44 48.34422 12.07261 14896 ft 370 kts 60°
2026-05-05 10:44 48.35746 12.10618 15581 ft 374 kts 60°
2026-05-05 10:44 48.37064 12.13969 16253 ft 378 kts 60°
2026-05-05 10:45 48.38414 12.17399 16933 ft 381 kts 60°
2026-05-05 10:45 48.39781 12.20867 17604 ft 385 kts 60°
2026-05-05 10:45 48.41153 12.24342 18240 ft 390 kts 61°
2026-05-05 10:45 48.42531 12.27842 18813 ft 393 kts 60°
2026-05-05 10:46 48.43935 12.31413 19404 ft 397 kts 61°
2026-05-05 10:46 48.45347 12.35003 19991 ft 400 kts 61°
2026-05-05 10:46 48.46771 12.38634 20596 ft 403 kts 61°
2026-05-05 10:46 48.48184 12.42251 21164 ft 406 kts 61°
2026-05-05 10:47 48.49621 12.45940 21732 ft 409 kts 61°
2026-05-05 10:47 48.51071 12.49660 22289 ft 412 kts 61°
2026-05-05 10:47 48.52533 12.53411 22855 ft 416 kts 61°
2026-05-05 10:47 48.54009 12.57200 23397 ft 419 kts 61°
2026-05-05 10:48 48.55475 12.60970 23816 ft 422 kts 61°
2026-05-05 10:48 48.56967 12.64811 24237 ft 425 kts 60°
2026-05-05 10:48 48.58458 12.68652 24667 ft 429 kts 60°
2026-05-05 10:48 48.59973 12.72567 25099 ft 432 kts 61°
2026-05-05 10:49 48.61484 12.76478 25508 ft 435 kts 60°
2026-05-05 10:49 48.63020 12.80459 25905 ft 438 kts 60°
2026-05-05 10:49 48.64561 12.84457 26303 ft 441 kts 60°
2026-05-05 10:49 48.66112 12.88486 26710 ft 444 kts 60°
2026-05-05 10:50 48.67672 12.92551 27104 ft 447 kts 60°
2026-05-05 10:50 48.69217 12.96586 27485 ft 450 kts 60°
2026-05-05 10:50 48.70796 13.00711 27877 ft 453 kts 60°
2026-05-05 10:50 48.72379 13.04858 28271 ft 456 kts 60°
2026-05-05 10:51 48.73973 13.09036 28664 ft 459 kts 60°
2026-05-05 10:51 48.75574 13.13241 29049 ft 462 kts 60°
2026-05-05 10:51 48.77190 13.17491 29423 ft 465 kts 60°
2026-05-05 10:51 48.78798 13.21723 29776 ft 468 kts 60°
2026-05-05 10:52 48.80420 13.25992 30119 ft 470 kts 60°
2026-05-05 10:52 48.82054 13.30299 30414 ft 472 kts 60°
2026-05-05 10:52 48.83696 13.34635 30720 ft 474 kts 60°
2026-05-05 10:52 48.85352 13.39022 31027 ft 476 kts 60°